"Pseudo-MPEC" for P11JzPu

Created 2023 Sep 27 1:22:12 UT using Find_Orb

Click here for an explanation of pseudo-MPECs

 
 Astrometry: 
     P11JzPu* C2023 09 15WO,:_HpumAstrometry[p4*PYredacted;V+WK.$rgl)aSf5p@FEF51
     P11JzPu  C2023 09 15a*)1ZvF*dPZD`eUfclickM3^:%gUXSD(MkM-,26qF2*wHdu/)PuVF51
     P11JzPu  C2023 09 15dYJiY-$*4oXAUhereDXLjDDtum8puGQQ1fordUTd4VKl;_;Mpq8wF51
     P11JzPu  C2023 09 15;7Ai2hexplanation')jV*u-o_##*ZNQu3lHn=s`:hw5W0$8mHnQF51
     P11JzPu  C2023 09 15DUF]qIaU]5,2#y4Kpa10O/y,s#xflqJG=-r@HNX^4D;gYf]@wmp,F51

Station data:
(F51) Pan-STARRS 1, Haleakala  (N20.707234 W156.255910)  US/Hawaii.
   Observers J. Bulger, T. Lowe, A. Schultz, M. Willman. Measurers K.
   Chambers, S. Chastel, T. de Boer, L. Denneau, J. Fairlamb, H. Flewelling,
   M. Huber, C.-C. Lin, E. Magnier, Y. Ramanjooloo, R. Wainscoat, R. Weryk.
   1.8-m Ritchey-Chrétien + CCD.

Orbital elements:  P11JzPu
   Perihelion 2023 Aug 28.14156 +/- 64.4 TT =  3:23:51 (JD 2460184.64156)
Epoch 2023 Sep 15.0 TT = JDT 2460202.5   Earth MOID: 0.3951   Ma: 0.0235
M   8.32698636 +/- 29               (J2000 ecliptic)             AutoNEOCP
n   0.46627746 +/- 0.238            Peri.  188.30788 +/- 70
a   1.64704867 +/- 0.56             Node   150.61245 +/- 20
e   0.1473200 +/- 0.205             Incl.   27.81539 +/- 13
P   2.11/772.06d           H 22.21  G  0.15   U 11.8  SR
q 1.40440538 +/- 0.278    Q 1.88969196 +/- 2.71
From 5 observations 2023 Sept. 15 (1.8 hr); mean residual 0".18
Residuals in arcseconds: 
230915 F51  .07+  .25-    230915 F51  .11+  .22+    230915 F51  .11-  .28-    
230915 F51  .17-  .09+    230915 F51  .10+  .22+    

Ephemerides (geocentric):
Date (UTC) HH   RA             Dec           delta  r     elong  mag " sig PA
---- --------  ------------   ------------  ------ ------ -----  --- --------
2023 09 27 01  23 33 36.364   -42 34 19.43  .51355 1.4142 135.2 22.8 5655   1
2023 09 27 02  23 33 36.288   -42 35 28.78  .51381 1.4142 135.2 22.8 5696   1
2023 09 27 03  23 33 36.215   -42 36 37.98  .51407 1.4142 135.2 22.8 5738   2
2023 09 27 04  23 33 36.143   -42 37 47.02  .51433 1.4143 135.1 22.8 5779   2
2023 09 27 05  23 33 36.073   -42 38 55.89  .51459 1.4143 135.1 22.8 5821   2
2023 09 27 06  23 33 36.006   -42 40 04.61  .51484 1.4143 135.0 22.8 5864   2
2023 09 27 07  23 33 35.941   -42 41 13.17  .51510 1.4143 135.0 22.8 5906   2
2023 09 27 08  23 33 35.878   -42 42 21.57  .51536 1.4144 134.9 22.8 5948   2
2023 09 27 09  23 33 35.817   -42 43 29.81  .51562 1.4144 134.9 22.8 5991   2
2023 09 27 10  23 33 35.758   -42 44 37.90  .51588 1.4144 134.9 22.8 6034   2
2023 09 27 11  23 33 35.701   -42 45 45.82  .51614 1.4144 134.8 22.8 6077   2
2023 09 27 12  23 33 35.646   -42 46 53.59  .51640 1.4145 134.8 22.8 6121   2
2023 09 27 13  23 33 35.594   -42 48 01.20  .51666 1.4145 134.7 22.8 6164   2
2023 09 27 14  23 33 35.543   -42 49 08.65  .51692 1.4145 134.7 22.8 6208   2
2023 09 27 15  23 33 35.495   -42 50 15.94  .51718 1.4146 134.7 22.8 6252   2
2023 09 27 16  23 33 35.449   -42 51 23.08  .51744 1.4146 134.6 22.8 6296   2
2023 09 27 17  23 33 35.405   -42 52 30.06  .51770 1.4146 134.6 22.8 6340   2
2023 09 27 18  23 33 35.363   -42 53 36.88  .51796 1.4146 134.5 22.8 6385   2
2023 09 27 19  23 33 35.324   -42 54 43.54  .51823 1.4147 134.5 22.8 6430   2
2023 09 27 20  23 33 35.286   -42 55 50.05  .51849 1.4147 134.5 22.8 6474   2
2023 09 27 21  23 33 35.251   -42 56 56.40  .51875 1.4147 134.4 22.8 6520   2
2023 09 27 22  23 33 35.218   -42 58 02.59  .51901 1.4147 134.4 22.8 6565   2
2023 09 27 23  23 33 35.187   -42 59 08.63  .51927 1.4148 134.3 22.8 6611   2
2023 09 28 00  23 33 35.159   -43 00 14.51  .51953 1.4148 134.3 22.9 6656   2
2023 09 28 01  23 33 35.132   -43 01 20.24  .51980 1.4148 134.3 22.9 6702   2
2023 09 28 02  23 33 35.108   -43 02 25.80  .52006 1.4149 134.2 22.9 6749   2
2023 09 28 03  23 33 35.086   -43 03 31.22  .52032 1.4149 134.2 22.9 6795   2
2023 09 28 04  23 33 35.066   -43 04 36.47  .52059 1.4149 134.1 22.9 6842   2
2023 09 28 05  23 33 35.049   -43 05 41.57  .52085 1.4149 134.1 22.9 6888   2
2023 09 28 06  23 33 35.033   -43 06 46.52  .52111 1.4150 134.0 22.9 6936   2
2023 09 28 07  23 33 35.020   -43 07 51.31  .52138 1.4150 134.0 22.9 6983   2
2023 09 28 08  23 33 35.009   -43 08 55.94  .52164 1.4150 134.0 22.9 7030   2
2023 09 28 09  23 33 35.001   -43 10 00.42  .52190 1.4151 133.9 22.9 7078   2
2023 09 28 10  23 33 34.995   -43 11 04.75  .52217 1.4151 133.9 22.9 7126   2
2023 09 28 11  23 33 34.990   -43 12 08.91  .52243 1.4151 133.8 22.9 7174   2
2023 09 28 12  23 33 34.989   -43 13 12.93  .52270 1.4151 133.8 22.9 7223   2
2023 09 28 13  23 33 34.989   -43 14 16.79  .52296 1.4152 133.8 22.9 7271   2
2023 09 28 14  23 33 34.992   -43 15 20.50  .52323 1.4152 133.7 22.9 7320   2
2023 09 28 15  23 33 34.997   -43 16 24.05  .52349 1.4152 133.7 22.9 7369   2
2023 09 28 16  23 33 35.004   -43 17 27.44  .52376 1.4152 133.6 22.9 7418   2
2023 09 28 17  23 33 35.014   -43 18 30.69  .52402 1.4153 133.6 22.9 7468   2
2023 09 28 18  23 33 35.026   -43 19 33.78  .52429 1.4153 133.6 22.9 7518   2
2023 09 28 19  23 33 35.040   -43 20 36.71  .52455 1.4153 133.5 22.9 7568   2
2023 09 28 20  23 33 35.056   -43 21 39.50  .52482 1.4154 133.5 22.9 7618   2
2023 09 28 21  23 33 35.075   -43 22 42.12  .52508 1.4154 133.4 22.9 7668   2
2023 09 28 22  23 33 35.096   -43 23 44.60  .52535 1.4154 133.4 22.9 7719   2
2023 09 28 23  23 33 35.120   -43 24 46.92  .52562 1.4154 133.4 22.9 7770   2
2023 09 29 00  23 33 35.146   -43 25 49.09  .52588 1.4155 133.3 22.9 7821   2